CZ-3B DEB, 40840

Orbit data source: Space-Track

CZ-3B DEB, 40840 is space debris in HEO originally from a launch on Mon, 19 Dec 2011 UTC launched from the Xichang Space Center, China (XSC). Debris objects in space refer to the collection of defunct objects orbiting the Earth. Examples of debris include non-operational satellites, rocket bodies, and fragments generated from explosions, collisions, or faulty payload assembly.

Loading next visibility...
Identifier
40840, 2011-077V
Orbit
HEO
Country
Flag of CNCN / PRC
Related business
Manufacturer
CALT
Mission
Spacecraft
Bus & Motor
Unknown
Mass
Unknown
Launch date (UTC)
2011-12-19 (14 years ago)
Launch vehicle
Unknown
Launch site
Xichang Space Center, China (XSC)
Object type
Payload
Rocket body
Debris
Shape & HBR
Unknown shape, 0.2 m
Radar Cross Section
Medium (>0.1 m² and <1 m²)

Expand to show TLE details & history
Last TLE update: 5 months ago

TLE from 5 months ago
0 CZ-3B DEB
1 40840U 11077V   25240.93292967 -.00000232  00000-0  74838-2 0  9992
2 40840  27.6641  83.6794 7336821 204.8174  85.6647  1.92928188 81921
Epoch: 2025-08-28T22:23Z
TLE epoch observation values (Epoch: 2025-08-28T22:23:25.123Z)
Latitude
-0.00009°
Longitude
130.45661°
Altitude
31,268.991 km
Speed
2.56 km/s
True Right ascension
05h 34m 48s
True Declination
0° 00' 00"
Sunlit
Object was in daylight at epoch
Visualization orbit readout
Latitude
Unknown
Longitude
Unknown
Altitude
Unknown
Speed
Unknown
Apparent Right ascension
Unknown
Apparent Declination
Unknown
Sunlit
N/A
Visualization observer readout
Local Sidereal Time
17:03:30
Azimuth
Unknown
Elevation
Unknown
Doppler factor
Unknown
Orbital elements
Apogee altitude
40,882.182 km
Perigee altitude
881.711 km
Semi-major axis
27,260.083 km
Eccentricity
0.73368
Inclination
27.6641°
RAAN
83.6794°
Arg. of periapsis
204.8174°
True anomaly
155.24288°
Mean anomaly
85.6647°
Eccentric anomaly
121.50509°
Mean motion
0.48223 °/min
Orbital period
746.53 mins
BSTAR
0.0074838
Loading maneuver chart data...
Computing Atmospheric mass density...
Loading historical data...
Loading historical data...
Loading historical data...
Loading historical data...
Loading historical data...
Loading historical data...
Loading historical data...

Documentation

Showing up to 5 results
|